FW6296 Weather Reports


Display with metric or nautical units.
time (UTC)temp
F
wind
direction
speed
MPH
gust
MPH
rain 1hr
in
rain 24hr
in
rain mn
in
humidity
%
barometer
mb
20260831025518 74 281 0.0 2.0 0.03 0.36 0.36 90 1015.9
20260831024515 74 0.0 0.0 0.03 0.35 0.35 90 1016.1
20260831023536 74 70 0.0 1.0 0.03 0.35 0.35 89 1016.3
20260831022517 75 102 1.0 3.0 0.03 0.35 0.35 86 1016.4
20260831021516 76 0.0 0.0 0.02 0.35 0.35 85 1016.3
20260831020536 76 114 0.0 3.0 0.01 0.33 0.33 85 1015.8
20260831015517 76 204 1.0 3.0 0.00 0.33 0.33 85 1015.9
20260831014516 76 202 0.0 2.0 0.00 0.33 0.33 84 1016.0
20260831013517 76 235 0.0 2.0 0.00 0.33 0.33 84 1015.9
20260831012517 76 0.0 0.0 0.00 0.33 0.33 83 1015.6
20260831011517 76 88 0.0 2.0 0.00 0.33 0.33 82 1015.4
20260831010517 76 229 0.0 2.0 0.00 0.33 0.33 82 1015.4
20260831005517 76 122 0.0 3.0 0.00 0.33 0.33 83 1014.9
20260831004517 76 201 1.0 3.0 0.00 0.33 0.33 83 1014.9
20260831003518 76 0.0 0.0 0.00 0.33 0.33 85 1015.4
20260831002518 76 118 0.0 2.0 0.00 0.33 0.33 84 1015.9
20260831001518 76 134 0.0 1.0 0.02 0.33 0.33 84 1015.9
20260831000515 76 37 0.0 1.0 0.02 0.33 0.33 86 1015.4
20260830235556 76 185 1.0 4.0 0.02 0.33 0.33 86 1015.4
20260830234516 76 134 1.0 3.0 0.02 0.33 0.33 85 1015.6
20260830233516 77 182 1.0 3.0 0.02 0.32 0.32 85 1015.7
20260830232516 77 115 0.0 2.0 0.02 0.32 0.32 85 1016.2
20260830231517 78 98 0.0 3.0 0.00 0.31 0.31 81 1016.0
20260830230516 78 99 0.0 3.0 0.00 0.31 0.31 80 1016.4
20260830225516 78 126 0.0 1.0 0.00 0.31 0.31 79 1016.3
20260830224517 79 0.0 0.0 0.00 0.31 0.30 78 1016.5
20260830223517 79 121 0.0 0.0 0.00 0.31 0.30 77 1016.3
20260830222517 79 116 0.0 2.0 0.00 0.31 0.30 76 1016.1
20260830221517 79 111 0.0 3.0 0.00 0.31 0.30 76 1015.9
20260830220517 79 131 1.0 4.0 0.00 0.31 0.30 76 1015.8
20260830215538 80 112 1.0 3.0 0.00 0.31 0.30 73 1015.9
20260830214518 80 0.0 0.0 0.00 0.31 0.30 72 1016.2
20260830213538 81 0.0 0.0 0.00 0.31 0.30 71 1016.2
20260830212538 81 78 0.0 2.0 0.00 0.31 0.30 70 1016.3
20260830211518 81 277 0.0 3.0 0.00 0.31 0.30 70 1016.4
20260830210516 82 273 2.0 4.0 0.00 0.31 0.30 69 1016.3
20260830205515 80 268 1.0 3.0 0.00 0.31 0.30 70 1016.3
20260830204515 79 278 1.0 3.0 0.00 0.31 0.30 72 1016.3
20260830203516 79 278 0.0 3.0 0.00 0.31 0.30 74 1016.4
20260830202516 79 282 1.0 5.0 0.01 0.31 0.30 74 1016.5
20260830201516 79 267 2.0 5.0 0.01 0.31 0.30 72 1016.3
20260830200517 79 273 1.0 5.0 0.01 0.31 0.30 71 1016.3
20260830195557 79 246 1.0 4.0 0.01 0.31 0.30 72 1016.2
20260830194517 78 247 0.0 3.0 0.01 0.31 0.30 75 1016.2
20260830193537 78 268 0.0 3.0 0.01 0.31 0.30 74 1016.2
20260830192517 79 275 1.0 6.0 0.00 0.30 0.29 70 1016.1
20260830191518 80 268 2.0 7.0 0.00 0.30 0.29 68 1016.0
20260830190518 82 265 4.0 8.0 0.00 0.30 0.29 66 1016.0
20260830185518 82 270 2.0 8.0 0.00 0.30 0.29 65 1015.9
20260830184518 82 270 2.0 5.0 0.00 0.30 0.29 65 1015.8
20260830183515 82 257 2.0 7.0 0.00 0.30 0.29 64 1015.5
20260830182515 83 245 2.0 7.0 0.00 0.30 0.29 64 1015.4
20260830181515 80 247 1.0 5.0 0.00 0.30 0.29 67 1015.5
20260830180515 80 225 3.0 7.0 0.00 0.30 0.29 68 1015.5
20260830175515 79 269 2.0 7.0 0.00 0.30 0.29 68 1015.7
20260830174536 79 260 2.0 6.0 0.00 0.30 0.29 69 1015.7
20260830173516 77 237 3.0 8.0 0.00 0.30 0.29 72 1015.5
20260830172516 76 279 2.0 7.0 0.00 0.30 0.29 75 1015.8
20260830171517 76 257 2.0 7.0 0.00 0.30 0.29 75 1015.9
20260830170517 76 256 3.0 7.0 0.00 0.30 0.29 75 1016.0
20260830165517 75 253 3.0 8.0 0.00 0.30 0.29 75 1016.2
20260830164517 75 247 2.0 7.0 0.00 0.30 0.29 76 1016.3
20260830163518 74 232 2.0 6.0 0.01 0.30 0.29 79 1016.3
20260830162518 74 250 2.0 5.0 0.01 0.30 0.29 79 1016.3
20260830161538 73 261 1.0 6.0 0.01 0.30 0.29 79 1016.1
20260830160536 72 218 1.0 4.0 0.01 0.30 0.29 81 1015.9
20260830155556 71 190 1.0 6.0 0.01 0.30 0.29 83 1015.6
20260830154536 71 178 1.0 3.0 0.01 0.30 0.29 84 1015.6
20260830153516 71 159 1.0 4.0 0.00 0.29 0.28 84 1016.0
20260830152516 70 191 1.0 3.0 0.01 0.29 0.28 84 1015.6
20260830151536 70 130 1.0 4.0 0.01 0.29 0.28 87 1015.8
20260830150516 69 199 1.0 3.0 0.04 0.29 0.28 87 1016.4
20260830145516 69 237 1.0 3.0 0.04 0.29 0.28 87 1016.5
20260830144517 68 132 1.0 5.0 0.05 0.29 0.28 88 1016.1
20260830143517 68 155 1.0 5.0 0.06 0.29 0.28 90 1016.2
20260830142518 68 187 1.0 3.0 0.07 0.27 0.26 89 1016.4
20260830141517 68 191 0.0 3.0 0.13 0.27 0.26 90 1016.5
20260830140517 67 192 1.0 8.0 0.12 0.25 0.24 90 1016.6
20260830135519 67 188 0.0 3.0 0.11 0.25 0.24 90 1017.0
20260830134518 67 164 0.0 3.0 0.10 0.24 0.23 91 1017.2
20260830133535 67 204 0.0 3.0 0.10 0.23 0.22 91 1017.4
20260830132518 67 193 0.0 2.0 0.07 0.20 0.20 91 1017.7
20260830131515 67 0.0 0.0 0.01 0.14 0.14 91 1017.9
20260830130515 67 0.0 0.0 0.00 0.13 0.12 91 1017.7
20260830125516 67 0.0 0.0 0.01 0.13 0.12 92 1017.7
20260830124516 67 0.0 0.0 0.01 0.13 0.12 91 1017.6
20260830123516 67 0.0 0.0 0.01 0.13 0.12 90 1017.5
20260830122517 67 0.0 0.0 0.01 0.13 0.12 90 1017.3
20260830121516 67 0.0 0.0 0.01 0.13 0.12 89 1017.2
20260830120517 67 0.0 0.0 0.01 0.13 0.12 88 1017.1
20260830115537 67 151 0.0 2.0 0.11 0.13 0.12 88 1016.7
20260830114517 67 242 0.0 1.0 0.12 0.13 0.12 88 1016.5
20260830113557 67 0.0 0.0 0.12 0.12 0.12 88 1016.2
20260830112517 67 128 0.0 3.0 0.11 0.12 0.11 88 1016.0
20260830111517 68 242 0.0 2.0 0.11 0.12 0.11 87 1016.0
20260830110516 68 239 0.0 2.0 0.11 0.12 0.11 85 1016.0
20260830105536 69 171 0.0 2.0 0.01 0.02 0.01 81 1015.7
20260830104516 69 192 0.0 3.0 0.00 0.01 0.00 80 1015.8
20260830103517 69 243 0.0 4.0 0.00 0.01 0.00 79 1015.7
20260830102517 69 139 0.0 2.0 0.00 0.01 0.00 79 1015.7
20260830101536 69 278 0.0 1.0 0.00 0.01 0.00 79 1015.7
20260830100515 69 228 0.0 3.0 0.00 0.01 0.00 78 1015.6
20260830095516 69 125 0.0 3.0 0.00 0.01 0.00 78 1015.6
20260830094516 69 142 0.0 3.0 0.00 0.01 0.00 77 1015.7
20260830093516 70 153 0.0 3.0 0.00 0.01 0.00 76 1015.7
20260830092516 70 222 0.0 3.0 0.00 0.01 0.00 76 1015.8
20260830091516 70 80 0.0 2.0 0.00 0.01 0.00 76 1015.8
20260830090517 69 254 0.0 3.0 0.00 0.01 0.00 76 1015.8
20260830085517 69 223 0.0 3.0 0.00 0.01 0.00 76 1015.8
20260830084517 69 141 0.0 2.0 0.00 0.01 0.00 76 1015.8
20260830083517 70 109 0.0 1.0 0.00 0.01 0.00 75 1015.8
20260830082519 70 122 0.0 2.0 0.00 0.01 0.00 74 1015.9
20260830081517 70 318 0.0 1.0 0.00 0.01 0.00 73 1015.7
20260830080518 70 156 0.0 2.0 0.00 0.01 0.00 73 1015.9
20260830075518 71 194 0.0 2.0 0.00 0.01 0.00 72 1015.9
20260830074518 71 146 0.0 2.0 0.00 0.01 0.00 71 1015.9
20260830073518 71 192 1.0 3.0 0.00 0.01 0.00 71 1015.9
20260830072516 71 216 0.0 5.0 0.00 0.01 0.00 71 1016.0
20260830071516 71 155 0.0 3.0 0.00 0.01 0.00 71 1016.0
20260830070516 71 163 1.0 3.0 0.00 0.01 0.00 71 1016.1
20260830065516 71 155 1.0 4.0 0.00 0.01 0.00 71 1016.1
20260830064516 71 148 0.0 3.0 0.00 0.01 0.00 71 1016.2
20260830063516 71 201 1.0 4.0 0.00 0.01 0.00 70 1016.2
20260830062517 71 153 0.0 4.0 0.00 0.01 0.00 70 1016.4
20260830061516 71 183 1.0 4.0 0.00 0.01 0.00 70 1016.4
20260830060517 71 239 1.0 4.0 0.00 0.01 0.00 71 1016.4
20260830055517 71 233 1.0 3.0 0.00 0.01 0.00 71 1016.5
20260830054517 71 206 1.0 5.0 0.00 0.01 0.00 72 1016.5
20260830053517 71 201 1.0 4.0 0.00 0.01 0.00 73 1016.5
20260830052518 70 178 1.0 4.0 0.00 0.01 0.00 74 1016.5
20260830051518 70 192 1.0 3.0 0.00 0.01 0.00 75 1016.7
20260830050518 70 197 0.0 3.0 0.00 0.01 0.00 76 1016.7
20260830045518 70 245 0.0 2.0 0.00 0.01 0.01 77 1016.8
20260830044518 70 213 0.0 4.0 0.00 0.01 0.01 77 1016.8
20260830043516 70 151 0.0 3.0 0.00 0.01 0.01 77 1017.0
20260830042515 70 125 1.0 3.0 0.00 0.01 0.01 77 1017.0
20260830041516 70 219 0.0 3.0 0.00 0.01 0.01 77 1016.9
20260830040516 70 229 0.0 2.0 0.00 0.01 0.01 78 1017.0
20260830035537 70 166 0.0 3.0 0.00 0.01 0.01 78 1017.2
20260830034516 70 148 0.0 3.0 0.00 0.01 0.01 78 1017.2
20260830033516 70 129 0.0 4.0 0.00 0.01 0.01 78 1017.2
20260830032517 70 206 0.0 2.0 0.00 0.01 0.01 79 1017.2
20260830031537 70 146 0.0 4.0 0.00 0.01 0.01 79 1017.2
20260830030517 70 227 0.0 2.0 0.00 0.01 0.01 79 1017.1